Home   Weather   Guayaquil   Past weeks

Flag for Ecuador Past Weather in Guayaquil, Ecuador — Yesterday and Last 2 Weeks

Now
82 °F

Passing clouds.


Feels Like: 88 °F
Forecast: 75 / 90 °F
Wind: 6 mph from South

Location: Guayaquil / Simon Bolivar

Current Time: Apr 30, 2017 at 7:54:21 pm

Latest Report: Apr 30, 2017 at 7:00 pm


Visibility: N/A

Pressure: 29.83 "Hg

Humidity: 74%

Dew Point: 73 °F

Location of GuayaquilLocation

Past Weather in Guayaquil — Graph

°F

Guayaquil Temperature Yesterday

Maximum temperature yesterday: 90 °F (at 1:00 pm)
Minimum temperature yesterday: 73 °F (at 10:00 pm)
Average temperature yesterday: 81 °F

High & Low Weather Summary for the Past Weeks

 TemperatureHumidityPressure
High91 °F (Apr 17, 5:00 pm)100% (Apr 18, 1:13 am)29.95 "Hg (Apr 18, 1:13 am)
Low73 °F (Apr 24, 11:00 pm)52% (Apr 28, 11:00 am)29.68 "Hg (Apr 17, 4:00 pm)
Average81 °F79%29.82 "Hg
* Reported Apr 15 6:00 pm — Apr 30 6:00 pm, Guayaquil, Weather by CustomWeather, © 2017

Note: Actual official high and low records may vary slightly from our data, if they occured in-between our weather recording intervals... More about our weather records

Advertising

Guayaquil Weather History for the Previous 24 Hours

Scroll right to see more
 ConditionsComfort  
Time TempWeatherWind HumidityBarometerVisibility
6:00 pm
Sun, Apr 30
82 °FPartly sunny.7 mph79%29.80 "HgN/A
5:00 pm84 °FPartly sunny.7 mph74%29.80 "HgN/A
4:00 pm84 °FBroken clouds.6 mph70%29.80 "HgN/A
3:00 pm86 °FBroken clouds.7 mph66%29.80 "HgN/A
2:00 pm86 °FBroken clouds.3 mph70%29.80 "HgN/A
1:00 pm86 °FPartly sunny.7 mph66%29.83 "HgN/A
12:00 pm86 °FPartly sunny.3 mph66%29.86 "HgN/A
11:00 am84 °FPartly sunny.3 mph66%29.89 "HgN/A
10:00 am81 °FPartly sunny.5 mph79%29.92 "HgN/A
9:00 am79 °FPartly sunny.3 mph84%29.92 "HgN/A
8:00 am75 °FBroken clouds.5 mph89%29.92 "HgN/A
7:00 am75 °FLight rain. Partly sunny.3 mph89%29.92 "HgN/A
6:00 am73 °FScattered showers. Passing clouds.3 mph94%29.89 "HgN/A
5:00 am73 °FLight rain. Partly cloudy.3 mph94%29.89 "HgN/A
4:00 am73 °FLight rain. Passing clouds.3 mph94%29.89 "HgN/A
3:00 am73 °FLight rain. Mostly cloudy.7 mph94%29.89 "HgN/A
2:00 am73 °FLight rain. Mostly cloudy.3 mph94%29.89 "HgN/A
1:32 am73 °FLight rain. Mostly cloudy.7 mph94%29.89 "HgN/A
1:00 am73 °FHeavy rain. Overcast.8 mph94%29.92 "Hg1 mi
12:00 am73 °FRain. Overcast.6 mph94%29.92 "Hg2 mi
11:00 pm
Sat, Apr 29
73 °FHeavy rain. Overcast.9 mph94%29.92 "Hg2 mi
10:40 pm73 °FHeavy rain. Overcast.10 mph94%29.92 "Hg2 mi
10:00 pm73 °FHeavy rain. Overcast.9 mph94%29.92 "Hg1 mi
9:32 pm75 °FHeavy rain. Mostly cloudy.5 mph83%29.92 "Hg2 mi
9:00 pm75 °FThunderstorms. Overcast.9 mph83%29.89 "Hg5 mi
8:32 pm79 °FThunderstorms. Overcast.10 mph84%29.86 "HgN/A
8:00 pm82 °FThunderstorms. Passing clouds.10 mph70%29.83 "HgN/A
7:00 pm84 °FThunderstorms. Passing clouds.14 mph70%29.80 "HgN/A
Weather by CustomWeather, © 2017

See weather overviewHow to use our weather pages